Time,TemperatureF,DewpointF,PressureIn,WindDirection,WindDirectionDegrees,WindSpeedMPH,WindSpeedGustMPH,Humidity,HourlyPrecipIn,Conditions,Clouds,dailyrainin,SoftwareType,DateUTC
2013-11-02 00:13:00,56.0,44.0,-100.00,NNW,335,4.0,6.0,62,0.00,,,0.21,,2013-11-02 04:13:00,
2013-11-02 00:24:00,56.0,43.0,-100.00,NNW,330,4.0,6.0,60,0.00,,,0.21,,2013-11-02 04:24:00,
2013-11-02 00:44:00,58.0,43.0,-100.00,NNW,330,4.0,8.0,58,0.00,,,0.21,,2013-11-02 04:44:00,
2013-11-02 00:54:00,58.0,43.0,-100.00,NNW,330,5.0,10.0,56,0.00,,,0.21,,2013-11-02 04:54:00,
2013-11-02 01:13:00,58.0,42.0,-100.00,NNW,332,5.0,9.0,56,0.00,,,0.21,,2013-11-02 05:13:00,
2013-11-02 01:22:00,58.0,43.0,-100.00,NNW,335,4.0,9.0,57,0.00,,,0.21,,2013-11-02 05:22:00,
2013-11-02 01:42:00,57.0,43.0,-100.00,NNW,332,5.0,8.0,58,0.00,,,0.21,,2013-11-02 05:42:00,
2013-11-02 01:52:00,57.0,43.0,-100.00,NNW,329,6.0,11.0,58,0.00,,,0.21,,2013-11-02 05:52:00,
2013-11-02 02:12:00,57.0,43.0,-100.00,NNW,330,6.0,11.0,59,0.00,,,0.21,,2013-11-02 06:12:00,
2013-11-02 02:22:00,56.0,43.0,-100.00,NNW,329,6.0,11.0,61,0.00,,,0.21,,2013-11-02 06:22:00,
2013-11-02 02:43:00,55.0,43.0,-100.00,NNW,332,6.0,9.0,63,0.00,,,0.21,,2013-11-02 06:43:00,
2013-11-02 02:52:00,54.0,43.0,-100.00,NW,326,6.0,10.0,65,0.00,,,0.20,,2013-11-02 06:52:00,
2013-11-02 03:12:00,54.0,43.0,-100.00,NW,326,6.0,10.0,66,0.00,,,0.20,,2013-11-02 07:12:00,
2013-11-02 03:22:00,54.0,43.0,-100.00,NNW,330,6.0,9.0,67,0.00,,,0.19,,2013-11-02 07:22:00,
2013-11-02 03:42:00,53.0,43.0,-100.00,NNW,330,5.0,9.0,68,0.00,,,0.19,,2013-11-02 07:42:00,
2013-11-02 03:52:00,53.0,43.0,-100.00,NNW,330,5.0,8.0,68,0.00,,,0.19,,2013-11-02 07:52:00,
2013-11-02 04:12:00,53.0,43.0,-100.00,NNW,330,4.0,7.0,70,0.00,,,0.19,,2013-11-02 08:12:00,
2013-11-02 04:22:00,52.0,43.0,-100.00,NNW,328,4.0,6.0,72,0.00,,,0.19,,2013-11-02 08:22:00,
2013-11-02 04:42:00,51.0,43.0,-100.00,NW,326,4.0,7.0,73,0.00,,,0.19,,2013-11-02 08:42:00,
2013-11-02 04:52:00,51.0,43.0,-100.00,NNW,330,3.0,6.0,74,0.00,,,0.19,,2013-11-02 08:52:00,
2013-11-02 05:11:00,49.0,42.0,-100.00,NW,325,3.0,5.0,77,0.00,,,0.19,,2013-11-02 09:11:00,
2013-11-02 05:22:00,50.0,42.0,-100.00,NW,322,2.0,5.0,75,0.00,,,0.19,,2013-11-02 09:22:00,
2013-11-02 05:43:00,53.0,44.0,-100.00,NNW,329,1.0,2.0,72,0.00,,,0.19,,2013-11-02 09:43:00,
2013-11-02 05:53:00,52.0,43.0,-100.00,NNW,342,1.0,2.0,70,0.00,,,0.19,,2013-11-02 09:53:00,
2013-11-02 06:13:00,52.0,42.0,-100.00,NNW,332,2.0,3.0,68,0.00,,,0.19,,2013-11-02 10:13:00,
2013-11-02 06:23:00,54.0,44.0,-100.00,North,1,0.0,1.0,68,0.00,,,0.19,,2013-11-02 10:23:00,
2013-11-02 06:42:00,52.0,42.0,-100.00,NNW,328,1.0,3.0,68,0.00,,,0.19,,2013-11-02 10:42:00,
2013-11-02 06:53:00,52.0,41.0,-100.00,North,352,1.0,4.0,65,0.00,,,0.19,,2013-11-02 10:53:00,
2013-11-02 07:12:00,54.0,42.0,-100.00,NW,323,1.0,3.0,64,0.00,,,0.19,,2013-11-02 11:12:00,
2013-11-02 07:22:00,54.0,42.0,-100.00,North,11,0.0,2.0,63,0.00,,,0.19,,2013-11-02 11:22:00,
2013-11-02 07:42:00,54.0,42.0,-100.00,NE,37,0.0,3.0,64,0.00,,,0.19,,2013-11-02 11:42:00,
2013-11-02 07:52:00,53.0,42.0,-100.00,North,6,0.0,3.0,64,0.00,,,0.19,,2013-11-02 11:52:00,
2013-11-02 08:12:00,53.0,41.0,-100.00,North,7,0.0,0.0,63,0.00,,,0.18,,2013-11-02 12:12:00,
2013-11-02 08:52:00,49.0,42.0,-100.00,NNW,328,3.0,5.0,77,0.00,,,0.01,,2013-11-02 12:52:00,
2013-11-02 09:12:00,51.0,42.0,-100.00,NW,322,2.0,5.0,71,0.00,,,0.00,,2013-11-02 13:12:00,
2013-11-02 09:22:00,51.0,42.0,-100.00,NW,322,2.0,5.0,71,0.00,,,0.00,,2013-11-02 13:22:00,
2013-11-02 10:42:00,57.0,43.0,-100.00,NNW,339,3.0,6.0,60,0.00,,,0.00,,2013-11-02 14:42:00,
2013-11-02 10:52:00,57.0,44.0,-100.00,NNW,330,4.0,10.0,62,0.00,,,0.00,,2013-11-02 14:52:00,
2013-11-02 11:11:00,57.0,45.0,-100.00,NNW,333,4.0,9.0,63,0.00,,,0.00,,2013-11-02 15:11:00,
2013-11-02 11:22:00,58.0,44.0,-100.00,NNW,337,3.0,8.0,60,0.00,,,0.00,,2013-11-02 15:22:00,
2013-11-02 11:43:00,58.0,44.0,-100.00,NW,326,6.0,11.0,60,0.00,,,0.00,,2013-11-02 15:43:00,
2013-11-02 11:53:00,59.0,43.0,-100.00,NW,318,6.0,9.0,55,0.00,,,0.00,,2013-11-02 15:53:00,
2013-11-02 12:13:00,61.0,44.0,-100.00,NW,326,4.0,9.0,53,0.00,,,0.00,,2013-11-02 16:13:00,
2013-11-02 12:24:00,62.0,44.0,-100.00,NW,326,4.0,7.0,51,0.00,,,0.00,,2013-11-02 16:24:00,
2013-11-02 12:43:00,61.0,43.0,-100.00,NNW,336,4.0,9.0,50,0.00,,,0.00,,2013-11-02 16:43:00,
2013-11-02 12:54:00,61.0,40.0,-100.00,WNW,296,5.0,11.0,45,0.00,,,0.00,,2013-11-02 16:54:00,
2013-11-02 13:13:00,60.0,41.0,-100.00,NW,316,4.0,8.0,48,0.00,,,0.00,,2013-11-02 17:13:00,
2013-11-02 13:22:00,62.0,42.0,-100.00,NW,323,4.0,7.0,48,0.00,,,0.00,,2013-11-02 17:22:00,
2013-11-02 13:43:00,61.0,39.0,-100.00,NNW,332,4.0,9.0,45,0.00,,,0.00,,2013-11-02 17:43:00,
2013-11-02 13:53:00,60.0,39.0,-100.00,NNW,344,3.0,8.0,45,0.00,,,0.00,,2013-11-02 17:53:00,
2013-11-02 14:12:00,59.0,42.0,-100.00,NNW,329,3.0,7.0,53,0.00,,,0.00,,2013-11-02 18:12:00,
2013-11-02 14:22:00,58.0,42.0,-100.00,NNW,333,4.0,10.0,55,0.00,,,0.00,,2013-11-02 18:22:00,
2013-11-02 14:42:00,58.0,43.0,-100.00,NW,325,9.0,20.0,57,0.00,,,0.00,,2013-11-02 18:42:00,
2013-11-02 14:53:00,59.0,42.0,-100.00,NNW,333,7.0,15.0,53,0.00,,,0.00,,2013-11-02 18:53:00,
2013-11-02 15:11:00,58.0,42.0,-100.00,NW,325,10.0,21.0,53,0.00,,,0.00,,2013-11-02 19:11:00,
2013-11-02 15:22:00,60.0,41.0,-100.00,NNW,332,8.0,16.0,48,0.00,,,0.00,,2013-11-02 19:22:00,
2013-11-02 15:42:00,58.0,40.0,-100.00,NW,325,10.0,17.0,50,0.00,,,0.00,,2013-11-02 19:42:00,
2013-11-02 15:52:00,58.0,40.0,-100.00,NNW,333,8.0,19.0,51,0.00,,,0.00,,2013-11-02 19:52:00,
2013-11-02 16:12:00,59.0,39.0,-100.00,NNW,332,9.0,24.0,47,0.00,,,0.00,,2013-11-02 20:12:00,
2013-11-02 16:22:00,58.0,38.0,-100.00,NNW,332,8.0,17.0,47,0.00,,,0.00,,2013-11-02 20:22:00,
2013-11-02 16:43:00,58.0,37.0,-100.00,NNW,333,6.0,14.0,46,0.00,,,0.00,,2013-11-02 20:43:00,
2013-11-02 16:53:00,58.0,36.0,-100.00,NNW,329,6.0,14.0,44,0.00,,,0.00,,2013-11-02 20:53:00,
2013-11-02 17:12:00,57.0,35.0,-100.00,NNW,330,7.0,15.0,42,0.00,,,0.00,,2013-11-02 21:12:00,
2013-11-02 17:22:00,57.0,36.0,-100.00,NNW,329,7.0,15.0,45,0.00,,,0.00,,2013-11-02 21:22:00,
2013-11-02 17:44:00,56.0,36.0,-100.00,NNW,336,6.0,13.0,46,0.00,,,0.00,,2013-11-02 21:44:00,
2013-11-02 17:54:00,56.0,35.0,-100.00,NNW,333,7.0,17.0,46,0.00,,,0.00,,2013-11-02 21:54:00,
2013-11-02 18:13:00,55.0,35.0,-100.00,NNW,335,8.0,19.0,46,0.00,,,0.00,,2013-11-02 22:13:00,
2013-11-02 18:24:00,54.0,35.0,-100.00,NNW,330,11.0,27.0,47,0.00,,,0.00,,2013-11-02 22:24:00,
2013-11-02 18:44:00,53.0,36.0,-100.00,NNW,330,9.0,24.0,52,0.00,,,0.00,,2013-11-02 22:44:00,
2013-11-02 18:54:00,53.0,37.0,-100.00,NNW,328,9.0,17.0,55,0.00,,,0.00,,2013-11-02 22:54:00,
2013-11-02 19:12:00,52.0,37.0,-100.00,NNW,330,7.0,14.0,58,0.00,,,0.00,,2013-11-02 23:12:00,
2013-11-02 19:22:00,52.0,37.0,-100.00,NNW,330,8.0,18.0,58,0.00,,,0.00,,2013-11-02 23:22:00,
2013-11-02 19:42:00,52.0,37.0,-100.00,NNW,329,9.0,19.0,57,0.00,,,0.00,,2013-11-02 23:42:00,
2013-11-02 19:52:00,51.0,37.0,-100.00,NNW,330,7.0,17.0,58,0.00,,,0.00,,2013-11-02 23:52:00,
2013-11-02 20:11:00,51.0,37.0,-100.00,NNW,335,5.0,10.0,60,0.00,,,0.00,,2013-11-03 00:11:00,
2013-11-02 20:22:00,51.0,38.0,-100.00,NNW,335,6.0,14.0,60,0.00,,,0.00,,2013-11-03 00:22:00,
2013-11-02 20:42:00,50.0,38.0,-100.00,NNW,335,4.0,9.0,61,0.00,,,0.00,,2013-11-03 00:42:00,
2013-11-02 20:52:00,49.0,37.0,-100.00,NNW,347,2.0,7.0,63,0.00,,,0.00,,2013-11-03 00:52:00,
2013-11-02 21:02:00,49.0,37.0,-100.00,NNW,347,2.0,7.0,63,0.00,,,0.00,,2013-11-03 01:02:00,
2013-11-02 21:22:00,50.0,37.0,-100.00,NNW,330,6.0,12.0,61,0.00,,,0.00,,2013-11-03 01:22:00,
2013-11-02 21:42:00,49.0,37.0,-100.00,NNW,329,6.0,10.0,63,0.00,,,0.00,,2013-11-03 01:42:00,
2013-11-02 21:52:00,50.0,37.0,-100.00,NNW,332,7.0,14.0,62,0.00,,,0.00,,2013-11-03 01:52:00,
2013-11-02 22:11:00,48.0,35.0,-100.00,NNW,330,6.0,14.0,60,0.00,,,0.00,,2013-11-03 02:11:00,
2013-11-02 22:22:00,49.0,35.0,-100.00,NNW,333,6.0,15.0,59,0.00,,,0.00,,2013-11-03 02:22:00,
2013-11-02 22:43:00,48.0,34.0,-100.00,NNW,332,6.0,12.0,58,0.00,,,0.00,,2013-11-03 02:43:00,
2013-11-02 22:52:00,48.0,34.0,-100.00,NNW,330,6.0,12.0,59,0.00,,,0.00,,2013-11-03 02:52:00,
2013-11-02 23:12:00,49.0,36.0,-100.00,NNW,330,6.0,12.0,60,0.00,,,0.00,,2013-11-03 03:12:00,
2013-11-02 23:22:00,47.0,35.0,-100.00,NNW,328,7.0,12.0,62,0.00,,,0.00,,2013-11-03 03:22:00,
2013-11-02 23:45:00,47.0,35.0,-100.00,NNW,336,5.0,11.0,62,0.00,,,0.00,,2013-11-03 03:45:00,
2013-11-02 23:54:00,47.0,35.0,-100.00,NNW,332,6.0,10.0,63,0.00,,,0.00,,2013-11-03 03:54:00,